Regional Weather Roundup
Issued by NWS Austin/San Antonio, TX

Current Version | Previous Version | Text Only | Print | Product List | Glossary On
Versions: 1 2 3 4 5 6 7 8 9 10 11 12 13 14 15 16 17 18 19 20 21 22 23 24 25 26 27 28 29 30 31 32 33 34 35 36 37 38 39 40 41 42 43 44 45 46 47 48 49 50
000
ASUS44 KEWX 291713
RWREWX
SOUTH TEXAS REGIONAL WEATHER ROUNDUP
NATIONAL WEATHER SERVICE AUSTIN/SAN ANTONIO TX
1200 PM CDT THU SEP 29 2022

NOTE: "FAIR" INDICATED FEW OR NO CLOUDS BELOW 12,000 FEET WITH NO
SIGNIFICANT WEATHER AND/OR OBSTRUCTIONS TO VISIBILITY.

* - THESE STATIONS ARE NOT NWS OR FAA STATIONS...AND ARE NOT SUBJECT
    TO NWS AND FAA QUALITY CONTROL.

TXZ171-172-183>190-291800-
TEXAS HILL COUNTRY AND EDWARDS PLATEAU

CITY           SKY/WX    TMP DP  RH WIND       PRES   REMARKS
JUNCTION       SUNNY     83  53  35 VRB3      30.26F
*LLANO         SUNNY     82  48  30 W6        30.24F
BURNET         SUNNY     82  49  31 VRB5      30.26F
*HORSESHOE BAY SUNNY     82  49  31 CALM      30.25S
*LAGO VISTA      N/A     85  48  28 E6        30.25F
*KERRVILLE     SUNNY     82  48  29 W3        30.25F
*FREDERICKSBRG SUNNY     82  46  27 N5        30.26S
*ROCKSPRINGS   SUNNY     79  43  27 W7        30.33F
*BOERNE        SUNNY     81  43  26 N3        30.25S
HONDO          SUNNY     84  52  33 VRB6      30.23F
*UVALDE        SUNNY     80  54  40 W7        30.26F
DEL RIO        SUNNY     81  51  35 S7        30.23F
*LAUGHLIN AFB  SUNNY     81  46  28 S7        30.22F
*SPOFFORD      SUNNY     82  51  34 E9        30.23F
CARRIZO SPRGS  SUNNY     84  55  37 CALM      30.22F
*FAITH RANCH   SUNNY     84  52  32 S9        30.25F
$$

TXZ173-191>194-202-209-217>225-228-291800-
CENTRAL AND SOUTH CENTRAL TEXAS

CITY           SKY/WX    TMP DP  RH WIND       PRES   REMARKS
GEORGETOWN     SUNNY     83  50  31 NE3       30.24F
*TAYLOR        SUNNY     82  50  32 SE8       30.22F
AUSTIN/BERGSTM SUNNY     84  53  34 VRB3      30.21F
AUSTIN/MABRY   SUNNY     86  51  29 MISG      30.23F
*PFLUGERVILLE  SUNNY     82  48  30 CALM      30.21F
SAN MARCOS     SUNNY     86  49  28 N6        30.23F
NEW BRAUNFELS  SUNNY    103  52  18 VRB6      30.20F HX 100
*RANDOLPH AFB  SUNNY     86  45  23 SE3       30.19F
*SEGUIN        SUNNY     83  47  27 N3        30.19F
SAN ANTONIO    SUNNY     85  48  27 NW5       30.22F
STINSON FIELD  SUNNY     85  50  29 W5        30.20F
*KELLY FIELD   SUNNY     85  50  29 W6        30.20F
*PLEASANTON    SUNNY     84  53  34 W3        30.22F
*KENEDY        SUNNY     83  56  38 E3        30.22F
*LA GRANGE     NOT AVBL
*GIDDINGS      SUNNY     80  46  30 SE5       30.23F
*GONZALES      SUNNY     85  52  31 E5        30.21F
$$

TXZ163>164-176>182-195>201-210>213-226-227-235-291800-
SOUTHEAST TEXAS

CITY           SKY/WX    TMP DP  RH WIND       PRES   REMARKS
COLLEGE STN    SUNNY     78  46  32 E6        30.23F
*BRYAN         SUNNY     77  47  34 E7        30.26F
*CALDWELL      SUNNY     77  46  33 E7        30.24F
*CROCKETT      SUNNY     73  37  27 CALM      30.25F
*BRENHAM       SUNNY     78  43  28 E3          N/A
HUNTSVILLE     SUNNY     76  43  30 MISG      30.24F
CONROE         SUNNY     75  43  31 NE5       30.24F
HOUSTON BUSH   SUNNY     76  40  27 NE10      30.22F
HOUSTON HOBBY  SUNNY     77  40  26 NE12      30.21F
*HOUSTON SW AP NOT AVBL
PEARLAND       SUNNY     78  43  28 NE9       30.22F
HOUSTON HOOKS  SUNNY     77  45  32 VRB7      30.23F
ELLINGTON FLD  SUNNY     77  41  27 NE9       30.21F
SUGAR LAND     SUNNY     78  44  29 MISG      30.22F
*HOUSTON EXEC  SUNNY     77  46  33 NE8       30.24F
*CLEVELAND MUN NOT AVBL
*WHARTON       SUNNY     78  46  31 NE6       30.22F
*COLUMBUS      FAIR      78  47  33 NE5       30.23F
*EAGLE LAKE    SUNNY     80  45  28 MISG      30.22F
$$

TXZ214>216-236>238-291800-
THE UPPER TEXAS COAST

CITY           SKY/WX    TMP DP  RH WIND       PRES   REMARKS
*ORANGE        SUNNY     75  40  28 NE10      30.22F
PORT ARTHUR    SUNNY     75  44  33 N12       30.19F
GALVESTON      SUNNY     76  47  35 N13       30.21F
ANGLETON       SUNNY     78  46  32 NE7       30.21F
*BAY CITY      SUNNY     78  53  40 E7        30.21F
PALACIOS       SUNNY     82  52  35 NE8       30.19F
$$

TXZ229>234-239>247-291800-
TEXAS COASTAL BEND AND RIO GRANDE PLAINS

CITY           SKY/WX    TMP DP  RH WIND       PRES   REMARKS
VICTORIA       SUNNY     85  54  34 VRB5      30.21F
*BEEVILLE      SUNNY     83  51  32 NE6       30.21S
ROCKPORT       SUNNY     85  61  44 N8        30.19F
*PORT ARANSAS  SUNNY    N/A N/A N/A N12       30.21F
*PORT LAVACA   SUNNY     83  58  42 NE8       30.21F
*INGLESIDE     SUNNY     83  59  43 NE10      30.19F
CORPUS CHRISTI MOSUNNY   87  63  44 N10       30.20F
CORPUS NAS     SUNNY     84  65  52 N9        30.19F
*ROBSTOWN      SUNNY     84  59  42 MISG      30.20F
ALICE          SUNNY     85  59  41 NE8       30.19F
KINGSVILLE NAS MOSUNNY   85  60  42 N10       30.19F
COTULLA        SUNNY     85  58  39 N3        30.23F
LAREDO         SUNNY     83  59  44 S3        30.22F
$$

TXZ248>255-291800-
DEEP SOUTH TEXAS

CITY           SKY/WX    TMP DP  RH WIND       PRES   REMARKS
BROWNSVILLE    SUNNY     87  66  49 N10G18    30.16F
PORT ISABEL    SUNNY     85  66  53 N16       30.17S
HARLINGEN      MOSUNNY   85  63  47 N12G20    30.17F
*HEBBRONVILLE  SUNNY     82  54  37 N6        30.22F
MCALLEN        MOSUNNY   85  61  44 VRB5      30.19F
*WESLACO       MOSUNNY   84  62  47 NE12      30.19S
FALFURRIAS     SUNNY     85  56  37 VRB3      30.18F
EDINBURG       MOSUNNY   84  61  45 CALM      30.19F
*ZAPATA        SUNNY     84  59  41 S3        30.23S
$$

TXZ213>215-236>238-242>244-246-247-251-254-255-291800-
CMAN STATIONS

STATION/POSITION TIME  TEMP    WIND        PRES    WAVE
                       AIR SEA DIR/SP/G            HT/PER
                 (UTC) (F)     (DEG/KT/KT) (MB)    (FT/S)
SEA RIM ST PARK  1700   70      40/ 11/ 16 1022.7
NORTH JETTY/GLS  1630   69 78   50/ 11/ 13 1021.7
EAGLE POINT      1630   69 76   30/ 11/ 13 1022.7
MORGANS POINT    1630   73 80   20/  7/ 11 1022.7
MISSION/ARANSAS  1600   76      20/  6     1023.0
PORT O`CONNOR    1630   76 84   20/ 12/ 14 1022.3
PORT ARANSAS     1700   78     340/ 11/ 13   N/A
BAFFIN BAY       1630   78 81   10/ 10/ 12 1022.8
PORT ISABEL      1630   80 82  340/ 11/ 18 1021.1
$$



USA.gov is the U.S. government's official web portal to all federal, state and local government web resources and services.